DELTA 1 DEB, 10198

Orbit data source: Space-Track

DELTA 1 DEB, 10198 is space debris in LEO originally from a launch on Thu, 14 Jul 1977 UTC launched from the Air Force Eastern Test Range (AFETR). Debris objects in space refer to the collection of defunct objects orbiting the Earth. Examples of debris include non-operational satellites, rocket bodies, and fragments generated from explosions, collisions, or faulty payload assembly.

Loading next visibility...
Identifier
10198, 1977-065AB
Orbit
LEO
Country
Flag of USUS
Related business
Manufacturer
Unknown
Mission
Spacecraft
Bus & Motor
Unknown
Mass
Unknown
Launch date (UTC)
1977-07-14 (49 years ago)
Launch vehicle
Unknown
Launch site
Air Force Eastern Test Range (AFETR)
Object type
Payload
Rocket body
Debris
Shape & HBR
Unknown shape, 0.1 m
Radar Cross Section
Medium (>0.1 m² and <1 m²)

Expand to show TLE details & history
Last TLE update: 2 days ago

TLE from 2 days ago
0 DELTA 1 DEB
1 10198U 77065AB  26171.32825512  .00000853  00000-0  60737-3 0  9991
2 10198  29.5638 152.9957 0596530 240.4239 113.5591 13.30337381330052
Epoch: 2026-06-20T07:52Z
TLE epoch observation values (Epoch: 2026-06-20T07:52:41.242Z)
Latitude
-0°
Longitude
126.27939°
Altitude
1,344.988 km
Speed
7.091 km/s
True Right ascension
10h 11m 58s
True Declination
0° 00' 00"
Sunlit
Object was in daylight at epoch
Visualization orbit readout
Latitude
Unknown
Longitude
Unknown
Altitude
Unknown
Speed
Unknown
Apparent Right ascension
Unknown
Apparent Declination
Unknown
Sunlit
N/A
Visualization observer readout
Local Sidereal Time
01:06:57
Azimuth
Unknown
Elevation
Unknown
Doppler factor
Unknown
Orbital elements
Apogee altitude
1,598.263 km
Perigee altitude
700.203 km
Semi-major axis
7,527.37 km
Eccentricity
0.05965
Inclination
29.5638°
RAAN
152.9957°
Arg. of periapsis
240.4239°
True anomaly
119.63217°
Mean anomaly
113.5591°
Eccentric anomaly
116.6148°
Mean motion
3.32337 °/min
Orbital period
108.32 mins
BSTAR
0.00060737
Loading maneuver chart data...
Computing Atmospheric mass density...

Documentation

Showing up to 5 results
|